Time,TemperatureF,DewpointF,PressureIn,WindDirection,WindDirectionDegrees,WindSpeedMPH,WindSpeedGustMPH,Humidity,HourlyPrecipIn,Conditions,Clouds,dailyrainin,SoftwareType,DateUTC
2013-04-25 00:09:00,42.0,37.0,29.94,WNW,284,5.0,-999.0,81,-99.99,,,0.10,weatherlink.com 1.10,2013-04-25 04:09:00,
2013-04-25 00:24:00,41.8,37.0,29.96,WNW,284,8.0,-999.0,82,-99.99,,,0.10,weatherlink.com 1.10,2013-04-25 04:24:00,
2013-04-25 00:39:00,41.1,35.0,29.98,NW,319,3.0,-999.0,80,-99.99,,,0.10,weatherlink.com 1.10,2013-04-25 04:39:00,
2013-04-25 00:55:00,40.6,35.0,29.99,NW,309,10.0,-999.0,81,-99.99,,,0.10,weatherlink.com 1.10,2013-04-25 04:55:00,
2013-04-25 01:10:00,40.3,35.0,30.00,NW,323,10.0,-999.0,80,-99.99,,,0.10,weatherlink.com 1.10,2013-04-25 05:10:00,
2013-04-25 01:25:00,40.3,35.0,30.01,NW,317,2.0,-999.0,81,-99.99,,,0.10,weatherlink.com 1.10,2013-04-25 05:25:00,
2013-04-25 01:40:00,40.0,35.0,30.01,NNW,348,8.0,-999.0,81,-99.99,,,0.10,weatherlink.com 1.10,2013-04-25 05:40:00,
2013-04-25 01:55:00,40.1,34.0,30.02,West,279,7.0,-999.0,80,-99.99,,,0.10,weatherlink.com 1.10,2013-04-25 05:55:00,
2013-04-25 02:10:00,39.9,35.0,30.03,WNW,301,7.0,-999.0,81,-99.99,,,0.10,weatherlink.com 1.10,2013-04-25 06:10:00,
2013-04-25 02:25:00,39.7,35.0,30.03,WNW,298,3.0,-999.0,82,-99.99,,,0.10,weatherlink.com 1.10,2013-04-25 06:25:00,
2013-04-25 02:55:00,38.5,34.0,30.03,WNW,287,11.0,-999.0,85,-99.99,,,0.10,weatherlink.com 1.10,2013-04-25 06:55:00,
2013-04-25 03:10:00,38.5,34.0,30.04,WNW,302,2.0,-999.0,83,-99.99,,,0.10,weatherlink.com 1.10,2013-04-25 07:10:00,
2013-04-25 03:25:00,38.5,33.0,30.04,WNW,302,5.0,-999.0,81,-99.99,,,0.10,weatherlink.com 1.10,2013-04-25 07:25:00,
2013-04-25 03:40:00,38.5,32.0,30.05,NW,304,5.0,-999.0,78,-99.99,,,0.10,weatherlink.com 1.10,2013-04-25 07:40:00,
2013-04-25 03:55:00,38.5,32.0,30.06,West,267,4.0,-999.0,78,-99.99,,,0.10,weatherlink.com 1.10,2013-04-25 07:55:00,
2013-04-25 04:10:00,38.5,32.0,30.06,West,279,6.0,-999.0,78,-99.99,,,0.10,weatherlink.com 1.10,2013-04-25 08:10:00,
2013-04-25 04:25:00,38.5,32.0,30.07,NW,304,7.0,-999.0,78,-99.99,,,0.10,weatherlink.com 1.10,2013-04-25 08:25:00,
2013-04-25 04:55:00,38.4,32.0,30.09,WNW,289,0.0,-999.0,78,-99.99,,,0.10,weatherlink.com 1.10,2013-04-25 08:55:00,
2013-04-25 05:10:00,38.1,31.0,30.10,West,265,9.0,-999.0,76,-99.99,,,0.10,weatherlink.com 1.10,2013-04-25 09:10:00,
2013-04-25 05:25:00,38.0,31.0,30.11,NW,311,6.0,-999.0,75,-99.99,,,0.10,weatherlink.com 1.10,2013-04-25 09:25:00,
2013-04-25 05:40:00,37.9,31.0,30.11,NNW,348,6.0,-999.0,75,-99.99,,,0.10,weatherlink.com 1.10,2013-04-25 09:40:00,
2013-04-25 05:56:00,37.9,31.0,30.12,WNW,290,4.0,-999.0,76,-99.99,,,0.10,weatherlink.com 1.10,2013-04-25 09:56:00,
2013-04-25 06:11:00,37.8,31.0,30.14,NNW,329,2.0,-999.0,77,-99.99,,,0.10,weatherlink.com 1.10,2013-04-25 10:11:00,
2013-04-25 06:26:00,37.8,31.0,30.14,WNW,286,5.0,-999.0,77,-99.99,,,0.10,weatherlink.com 1.10,2013-04-25 10:26:00,
2013-04-25 06:56:00,37.8,32.0,30.16,West,263,3.0,-999.0,78,-99.99,,,0.10,weatherlink.com 1.10,2013-04-25 10:56:00,
2013-04-25 07:11:00,37.8,32.0,30.17,WNW,295,8.0,-999.0,79,-99.99,,,0.10,weatherlink.com 1.10,2013-04-25 11:11:00,
2013-04-25 07:26:00,38.2,32.0,30.18,WNW,284,7.0,-999.0,79,-99.99,,,0.10,weatherlink.com 1.10,2013-04-25 11:26:00,
2013-04-25 07:41:00,38.5,33.0,30.18,WNW,298,3.0,-999.0,79,-99.99,,,0.10,weatherlink.com 1.10,2013-04-25 11:41:00,
2013-04-25 07:56:00,39.4,33.0,30.18,WNW,302,3.0,-999.0,78,-99.99,,,0.10,weatherlink.com 1.10,2013-04-25 11:56:00,
2013-04-25 08:26:00,41.6,34.0,30.19,ENE,78,3.0,-999.0,74,-99.99,,,0.10,weatherlink.com 1.10,2013-04-25 12:26:00,
2013-04-25 08:56:00,43.0,34.0,30.18,NW,306,5.0,-999.0,71,-99.99,,,0.10,weatherlink.com 1.10,2013-04-25 12:56:00,
2013-04-25 09:11:00,44.0,34.0,30.18,NNW,339,4.0,-999.0,68,-99.99,,,0.10,weatherlink.com 1.10,2013-04-25 13:11:00,
2013-04-25 09:41:00,45.5,33.0,30.19,WNW,293,6.0,-999.0,62,-99.99,,,0.10,weatherlink.com 1.10,2013-04-25 13:41:00,
2013-04-25 09:56:00,46.3,33.0,30.20,NW,321,3.0,-999.0,61,-99.99,,,0.10,weatherlink.com 1.10,2013-04-25 13:56:00,
2013-04-25 10:11:00,46.4,32.0,30.20,West,267,7.0,-999.0,57,-99.99,,,0.10,weatherlink.com 1.10,2013-04-25 14:11:00,
2013-04-25 10:26:00,46.3,32.0,30.20,NW,308,2.0,-999.0,57,-99.99,,,0.10,weatherlink.com 1.10,2013-04-25 14:26:00,
2013-04-25 10:41:00,46.8,29.0,30.20,WNW,294,3.0,-999.0,51,-99.99,,,0.10,weatherlink.com 1.10,2013-04-25 14:41:00,
2013-04-25 10:56:00,47.6,29.0,30.20,NW,323,2.0,-999.0,48,-99.99,,,0.10,weatherlink.com 1.10,2013-04-25 14:56:00,
2013-04-25 11:11:00,48.5,29.0,30.20,WNW,286,2.0,-999.0,47,-99.99,,,0.10,weatherlink.com 1.10,2013-04-25 15:11:00,
2013-04-25 11:41:00,50.1,29.0,30.21,North,360,3.0,-999.0,44,-99.99,,,0.10,weatherlink.com 1.10,2013-04-25 15:41:00,
2013-04-25 12:11:00,50.0,30.0,30.20,NNW,340,4.0,-999.0,46,-99.99,,,0.10,weatherlink.com 1.10,2013-04-25 16:11:00,
2013-04-25 12:26:00,50.1,28.0,30.20,NW,305,4.0,-999.0,42,-99.99,,,0.10,weatherlink.com 1.10,2013-04-25 16:26:00,
2013-04-25 12:41:00,51.4,30.0,30.20,North,5,4.0,-999.0,44,-99.99,,,0.10,weatherlink.com 1.10,2013-04-25 16:41:00,
2013-04-25 12:56:00,52.0,29.0,30.19,NE,36,0.0,-999.0,42,-99.99,,,0.10,weatherlink.com 1.10,2013-04-25 16:56:00,
2013-04-25 13:11:00,51.9,29.0,30.19,SSE,168,5.0,-999.0,42,-99.99,,,0.10,weatherlink.com 1.10,2013-04-25 17:11:00,
2013-04-25 13:41:00,52.3,30.0,30.18,WSW,257,2.0,-999.0,43,-99.99,,,0.10,weatherlink.com 1.10,2013-04-25 17:41:00,
2013-04-25 13:56:00,52.5,30.0,30.17,SSW,202,3.0,-999.0,42,-99.99,,,0.00,weatherlink.com 1.10,2013-04-25 17:56:00,
2013-04-25 14:12:00,52.2,30.0,30.17,SE,124,4.0,-999.0,42,-99.99,,,0.00,weatherlink.com 1.10,2013-04-25 18:12:00,
2013-04-25 14:27:00,52.4,31.0,30.17,SW,218,8.0,-999.0,44,-99.99,,,0.00,weatherlink.com 1.10,2013-04-25 18:27:00,
2013-04-25 14:42:00,52.9,32.0,30.17,SW,229,5.0,-999.0,45,-99.99,,,0.00,weatherlink.com 1.10,2013-04-25 18:42:00,
2013-04-25 14:57:00,53.4,31.0,30.17,South,188,2.0,-999.0,43,-99.99,,,0.00,weatherlink.com 1.10,2013-04-25 18:57:00,
2013-04-25 15:12:00,53.8,32.0,30.16,West,271,5.0,-999.0,43,-99.99,,,0.00,weatherlink.com 1.10,2013-04-25 19:12:00,
2013-04-25 15:27:00,54.0,32.0,30.15,SSE,155,0.0,-999.0,43,-99.99,,,0.00,weatherlink.com 1.10,2013-04-25 19:27:00,
2013-04-25 15:42:00,53.1,30.0,30.15,SW,218,9.0,-999.0,42,-99.99,,,0.00,weatherlink.com 1.10,2013-04-25 19:42:00,
2013-04-25 15:57:00,53.6,31.0,30.15,West,261,7.0,-999.0,42,-99.99,,,0.00,weatherlink.com 1.10,2013-04-25 19:57:00,
2013-04-25 16:12:00,53.8,28.0,30.15,NW,309,0.0,-999.0,37,-99.99,,,0.00,weatherlink.com 1.10,2013-04-25 20:12:00,
2013-04-25 16:42:00,54.0,30.0,30.14,SSW,209,6.0,-999.0,40,-99.99,,,0.00,weatherlink.com 1.10,2013-04-25 20:42:00,
2013-04-25 16:57:00,55.1,30.0,30.14,West,271,4.0,-999.0,38,-99.99,,,0.00,weatherlink.com 1.10,2013-04-25 20:57:00,
2013-04-25 17:12:00,55.1,30.0,30.14,SSW,207,0.0,-999.0,39,-99.99,,,0.00,weatherlink.com 1.10,2013-04-25 21:12:00,
2013-04-25 17:27:00,54.9,31.0,30.14,SSE,166,0.0,-999.0,40,-99.99,,,0.00,weatherlink.com 1.10,2013-04-25 21:27:00,
2013-04-25 17:42:00,55.8,30.0,30.14,SE,134,0.0,-999.0,38,-99.99,,,0.00,weatherlink.com 1.10,2013-04-25 21:42:00,
2013-04-25 18:27:00,55.8,31.0,30.14,SSE,153,0.0,-999.0,39,-99.99,,,0.00,weatherlink.com 1.10,2013-04-25 22:27:00,
2013-04-25 18:42:00,55.4,29.0,30.14,SE,144,0.0,-999.0,36,-99.99,,,0.00,weatherlink.com 1.10,2013-04-25 22:42:00,
2013-04-25 18:57:00,55.5,31.0,30.14,SE,142,0.0,-999.0,39,-99.99,,,0.00,weatherlink.com 1.10,2013-04-25 22:57:00,
2013-04-25 19:12:00,54.9,30.0,30.14,SE,142,0.0,-999.0,39,-99.99,,,0.00,weatherlink.com 1.10,2013-04-25 23:12:00,
2013-04-25 19:27:00,54.3,33.0,30.15,SE,141,0.0,-999.0,45,-99.99,,,0.00,weatherlink.com 1.10,2013-04-25 23:27:00,
2013-04-25 19:42:00,53.6,34.0,30.15,SE,142,0.0,-999.0,47,-99.99,,,0.00,weatherlink.com 1.10,2013-04-25 23:42:00,
2013-04-25 19:57:00,53.0,31.0,30.16,ESE,119,0.0,-999.0,44,-99.99,,,0.00,weatherlink.com 1.10,2013-04-25 23:57:00,
2013-04-25 20:12:00,52.0,32.0,30.18,NNE,29,7.0,-999.0,46,-99.99,,,0.00,weatherlink.com 1.10,2013-04-26 00:12:00,
2013-04-25 20:27:00,50.3,32.0,30.19,NNE,15,6.0,-999.0,50,-99.99,,,0.00,weatherlink.com 1.10,2013-04-26 00:27:00,
2013-04-25 20:43:00,50.0,36.0,30.20,NNW,344,0.0,-999.0,58,-99.99,,,0.00,weatherlink.com 1.10,2013-04-26 00:43:00,
2013-04-25 20:58:00,50.2,34.0,30.21,North,9,0.0,-999.0,54,-99.99,,,0.00,weatherlink.com 1.10,2013-04-26 00:58:00,
2013-04-25 21:13:00,49.6,35.0,30.22,North,5,0.0,-999.0,58,-99.99,,,0.00,weatherlink.com 1.10,2013-04-26 01:13:00,
2013-04-25 21:43:00,48.0,35.0,30.24,NW,307,0.0,-999.0,62,-99.99,,,0.01,weatherlink.com 1.10,2013-04-26 01:43:00,
2013-04-25 21:58:00,47.2,34.0,30.24,NW,307,0.0,-999.0,60,-99.99,,,0.01,weatherlink.com 1.10,2013-04-26 01:58:00,
2013-04-25 22:28:00,46.1,33.0,30.25,NW,307,0.0,-999.0,60,-99.99,,,0.01,weatherlink.com 1.10,2013-04-26 02:28:00,
2013-04-25 22:43:00,45.4,34.0,30.26,NW,307,0.0,-999.0,65,-99.99,,,0.01,weatherlink.com 1.10,2013-04-26 02:43:00,
2013-04-25 22:58:00,44.5,36.0,30.26,NW,307,0.0,-999.0,71,-99.99,,,0.01,weatherlink.com 1.10,2013-04-26 02:58:00,
2013-04-25 23:13:00,44.5,35.0,30.27,NW,307,0.0,-999.0,70,-99.99,,,0.01,weatherlink.com 1.10,2013-04-26 03:13:00,
2013-04-25 23:28:00,44.8,31.0,30.29,NNE,13,4.0,-999.0,60,-99.99,,,0.01,weatherlink.com 1.10,2013-04-26 03:28:00,
2013-04-25 23:43:00,44.0,34.0,30.29,North,355,0.0,-999.0,68,-99.99,,,0.01,weatherlink.com 1.10,2013-04-26 03:43:00,